Location: Cegielnia
(52.3833°N, 20.9167°E)
Time: 09:32:57
(UTC+00:00)

Daily predictions for brighter satellites

Satellite Brightness Start Highest point End
(mag) Time Altitude Azimuth Time Altitude Azimuth Time Altitude Azimuth
USA 215 3.9 19:24:44 10° E 19:31:10 61° N 19:37:36 10° WNW
Meteor 1-15 Rocket 4.4 19:26:22 10° N 19:32:21 75° ENE 19:38:16 10° SSE
CENTAUR R/B 3.6 19:25:57 10° NW 19:33:29 59° NNE 19:41:59 10° ESE
STARLINK-1119 3.9 19:29:44 10° WNW 19:33:48 56° SSW 19:37:51 10° SE
Cosmos 1437 Rocket 2.7 19:31:47 10° S 19:35:32 64° E 19:39:21 10° NNE
STARLINK-1240 3.7 19:31:35 10° SW 19:35:40 58° SSE 19:39:45 10° ENE
Meteor 1-4 Rocket 4.5 19:32:34 10° SW 19:35:43 31° WNW 19:38:53 10° N
ATLAS 3B R/B 3.8 19:30:19 10° NW 19:36:35 40° NNE 19:43:01 10° E
Lacrosse 5 3.5 19:33:22 10° WNW 19:37:24 24° SW 19:41:25 10° S
STARLINK-1206 3.7 19:34:11 10° W 19:38:21 84° N 19:42:31 10° E
NOSS 3-2 (C) 4.3 19:31:30 10° NW 19:38:37 64° NE 19:46:47 10° ESE
STARLINK-1114 4.0 19:34:41 10° WNW 19:38:44 53° SSW 19:42:47 10° SE
Cosmos 304 Rocket 4.0 19:34:18 10° S 19:38:54 50° ESE 19:43:34 10° NNE
Cosmos 1378 4.2 19:35:49 10° SSE 19:39:01 28° E 19:42:13 10° NNE
STARLINK-1203 3.7 19:36:10 10° WSW 19:40:19 62° SSE 19:44:29 10° ENE
STARLINK-1216 3.6 19:36:32 10° WSW 19:40:37 61° SSE 19:44:44 10° ENE
ISS -1.3 19:39:35 10° WSW 19:41:00 12° SW 19:42:25 10° SSW
CZ-2C R/B 3.7 19:35:38 10° N 19:41:06 54° WNW 19:46:32 10° SW
STARLINK-1205 3.7 19:39:09 10° W 19:43:19 83° N 19:47:28 10° E
STARLINK-1130 (DARKSAT) 4.0 19:39:41 10° WNW 19:43:43 50° SSW 19:47:43 10° SE
STARLINK-1237 3.6 19:41:29 10° WSW 19:45:35 64° SSE 19:49:42 10° ENE
STARLINK-1218 3.7 19:44:09 10° W 19:48:19 82° N 19:52:28 10° E
STARLINK-1084 4.1 19:44:40 10° WNW 19:48:40 48° SSW 19:52:40 10° SE
Cosmos 1674 Rocket 3.6 19:44:40 10° S 19:49:03 79° E 19:53:29 10° NNE
Meteor 2-4 Rocket 4.4 19:44:11 10° SSW 19:49:25 54° WNW 19:54:43 10° N
STARLINK-1202 3.6 19:46:27 10° WSW 19:50:34 67° SSE 19:54:41 10° ENE
NOSS 2-2 (E) 3.8 19:47:57 10° SSW 19:51:17 36° SE 19:55:07 10° ENE
Cosmos 1378 Rocket 3.6 19:47:36 10° S 19:51:58 66° E 19:56:19 10° NNE
EXPRESS MD2 4.2 19:49:17 10° SSW 19:52:25 35° SE 19:58:02 10° E
SL-27 R/B 3.5 19:49:10 10° N 19:52:32 35° ENE 19:55:50 10° SE
STARLINK-1254 3.7 19:49:07 10° W 19:53:17 82° N 19:57:27 10° E
Cosmos 1766 3.7 19:49:36 10° N 19:53:31 52° ENE 19:57:24 10° SSE
STARLINK-1098 4.1 19:49:40 10° WNW 19:53:38 45° SSW 19:57:33 10° SE
Cosmos 2297 3.8 19:50:37 10° SSW 19:56:13 63° ESE 20:01:54 10° NE
Cosmos 1943 Rocket 3.0 19:51:51 10° SSE 19:56:43 32° ESE 20:01:37 10° NE
Cosmos 1900 4.4 19:51:56 10° NW 19:57:00 83° SW 20:01:59 11° SE
STARLINK-1231 3.7 19:54:06 10° W 19:58:15 81° N 20:02:26 10° E
STARLINK-1123 4.2 19:54:38 10° W 19:58:34 43° SSW 20:02:19 11° SE
Cosmos 2082 Rocket 3.6 19:54:06 10° NW 19:59:11 33° WSW 20:04:12 10° SSW
STARLINK-1246 3.6 19:56:24 10° WSW 20:00:31 73° SSE 20:04:40 10° ENE
IGS 5A 4.0 19:56:30 10° S 20:00:34 56° W 20:04:42 10° NNW
SeaSat 1 4.4 20:01:31 10° E 20:02:44 11° E 20:03:56 10° ESE
Cosmos 1452 Rocket 4.1 19:57:39 10° SW 20:02:54 63° WNW 20:08:11 10° NNE
Cosmos 332 Rocket 4.1 19:58:12 10° SSW 20:03:07 74° WNW 20:08:02 10° NNE
BREEZE-M DEB 3.9 20:00:55 10° SSW 20:03:14 24° SE 20:07:51 10° E
STARLINK-1232 3.7 19:59:06 10° W 20:03:16 81° N 20:07:26 10° E
STARLINK-1097 4.3 19:59:39 10° W 20:03:34 40° SSW 20:07:07 12° SE
Landsat 7 4.4 19:58:54 10° S 20:03:35 57° W 20:08:18 10° NNW
STARLINK-1224 3.5 20:01:21 10° WSW 20:05:30 75° SSE 20:09:38 10° ENE
Meteor 1-23 Rocket 4.2 20:01:40 10° S 20:07:22 85° ESE 20:13:02 10° NNE
STARLINK-1208 3.7 20:04:04 10° W 20:08:13 81° N 20:12:23 10° E
STARLINK-1099 4.4 20:04:38 10° W 20:08:30 38° SSW 20:11:54 13° SE
SAR-Lupe-2 3.8 20:05:57 10° N 20:09:33 72° WNW 20:13:07 10° SSW
Cosmos 1461 2.9 20:05:27 10° SW 20:09:39 85° SE 20:14:07 10° NE
STARLINK-1225 3.5 20:06:20 10° WSW 20:10:29 78° SSE 20:14:38 10° ENE
Cosmos 1975 Rocket 3.7 20:07:29 11° SSE 20:11:27 39° E 20:15:35 10° NNE
Cosmos 2369 Rocket 3.0 20:07:42 10° SSE 20:12:38 31° ESE 20:17:33 10° NE
STARLINK-1271 3.7 20:09:05 10° W 20:13:14 80° N 20:17:24 10° E
STARLINK-1104 4.5 20:09:38 10° W 20:13:27 36° SSW 20:16:40 13° SSE
STARLINK-1212 2.8 20:12:01 10° W 20:15:09 88° S 20:18:16 10° ESE
STARLINK-1230 3.5 20:11:18 10° WSW 20:15:27 80° SSE 20:19:36 10° ENE
STARLINK-1105 2.8 20:12:29 10° W 20:15:36 88° SSW 20:18:43 10° ESE
NOSS 2-2 (C) 3.4 20:12:21 10° SSW 20:15:49 48° SE 20:19:47 10° NE
STARLINK-1247 2.8 20:13:21 10° W 20:16:30 87° SSW 20:19:38 10° ESE
STARLINK-1227 2.8 20:13:51 10° W 20:16:59 87° SSW 20:20:05 10° ESE
STARLINK-1226 2.8 20:14:42 10° W 20:17:50 86° SSW 20:20:58 10° ESE
STARLINK-1154 3.7 20:14:03 10° W 20:18:13 81° N 20:22:23 10° E
STARLINK-1215 2.8 20:15:36 10° W 20:18:45 86° SSW 20:21:52 10° ESE
SPOT 5 3.2 20:14:22 10° S 20:19:37 77° WSW 20:25:01 10° NNW
ATLAS 2AS CENTAUR R/B 3.9 20:13:35 10° SSE 20:20:01 28° ESE 20:26:26 10° ENE
NOSS 3-2 (A) 4.1 20:12:49 10° NW 20:20:08 74° SW 20:27:48 13° SSE
STARLINK-1243 3.6 20:16:17 10° WSW 20:20:26 83° SSE 20:24:36 10° ENE
STARLINK-1217 2.8 20:17:26 10° W 20:20:33 85° SSW 20:23:41 10° ESE
Meteor 1-22 Rocket 4.3 20:15:28 10° NNW 20:21:27 87° ENE 20:26:47 12° SSE
STARLINK-1229 2.8 20:18:20 10° W 20:21:28 84° SSW 20:24:36 10° ESE
Cosmos 2026 Rocket 4.4 20:15:52 10° SSE 20:21:50 51° E 20:27:59 10° NNE
STARLINK-1270 2.8 20:19:14 10° W 20:22:22 84° SSW 20:25:30 10° ESE
STARLINK-1197 3.7 20:19:01 10° W 20:23:11 81° N 20:27:21 10° E
STARLINK-1189 2.8 20:21:01 10° W 20:24:10 83° S 20:27:17 10° ESE
ERS-1 Rocket 3.4 20:19:53 10° S 20:24:51 60° WSW 20:29:52 10° NNW
STARLINK-1188 2.8 20:21:56 10° W 20:25:05 82° S 20:28:12 10° ESE
STARLINK-1236 3.6 20:21:15 10° WSW 20:25:25 85° SSE 20:29:34 10° ENE
STARLINK-1187 2.8 20:23:01 10° WNW 20:26:07 78° SSW 20:29:05 11° ESE
STARLINK-1191 2.7 20:24:23 10° WNW 20:27:30 81° SSW 20:30:32 10° ESE
STARLINK-1198 3.7 20:24:00 10° W 20:28:10 81° N 20:32:20 10° E
STARLINK-1221 2.7 20:25:20 10° WNW 20:28:27 80° SSW 20:31:27 11° ESE
STARLINK-1222 2.7 20:26:11 10° WNW 20:29:18 80° SSW 20:32:16 11° ESE
Okean 2 3.5 20:25:56 11° S 20:29:47 64° E 20:33:56 10° NNE
STARLINK-1214 2.8 20:27:04 10° WNW 20:30:11 79° SSW 20:33:08 11° ESE
Cosmos 1066 Rocket 4.4 20:25:10 10° SSW 20:30:31 68° WNW 20:35:53 10° N
USA 238 DEB 4.0 20:24:55 10° NW 20:32:00 65° SW 20:38:25 14° SSE
Cosmos 1953 3.9 20:28:49 10° NNE 20:32:04 23° ENE 20:35:00 12° ESE
USA 238 4.0 20:25:01 10° NW 20:32:06 66° SW 20:38:32 14° SSE
Okean 1 Rocket 4.3 20:28:54 10° NNW 20:33:04 39° W 20:37:10 10° SSW
STARLINK-1199 3.7 20:29:00 10° W 20:33:10 82° N 20:37:20 10° E
Cosmos 968 Rocket 3.7 20:28:06 10° NNW 20:33:16 65° ENE 20:37:31 15° SE
Cosmos 1805 3.9 20:29:38 10° NNW 20:33:28 53° W 20:37:07 11° S
Cosmos 1470 3.3 20:29:58 10° N 20:33:43 45° ENE 20:36:30 16° SE
STARLINK-1228 3.1 20:31:09 10° WNW 20:34:38 69° SSW 20:37:42 13° ESE
STARLINK-1269 3.6 20:31:13 10° WSW 20:35:22 89° S 20:39:32 10° E
Resurs 01 Rocket 4.3 20:33:15 10° WSW 20:35:28 13° W 20:37:41 10° WNW
Cosmos 2278 Rocket 4.2 20:31:22 10° WSW 20:36:26 32° NW 20:41:32 10° NNE
Nadezhda 4 Rocket 4.3 20:30:51 10° SSW 20:36:57 69° WNW 20:43:05 10° N
STARLINK-1235 2.9 20:34:46 10° WNW 20:37:59 67° SSW 20:40:37 14° ESE
STARLINK-1210 3.7 20:33:59 10° W 20:38:08 83° N 20:42:18 10° E
Cosmos 1455 Rocket 3.0 20:34:30 10° N 20:38:53 82° E 20:42:18 16° SSE
STARLINK-1200 3.6 20:36:10 10° W 20:40:21 89° N 20:44:31 10° E
STARLINK-1219 3.7 20:38:57 10° W 20:43:07 84° N 20:47:17 10° E
STARLINK-1192 3.6 20:41:10 10° W 20:45:20 87° N 20:49:31 10° E
Cosmos 1758 3.7 20:42:50 10° N 20:46:51 55° ENE 20:49:40 18° SSE
ATLAS CENTAUR R/B 2.8 20:45:42 10° NW 20:47:13 21° N 20:48:57 10° ENE
STARLINK-1211 3.6 20:43:57 10° W 20:48:07 85° N 20:52:17 10° E
Terra 2.3 20:44:22 13° S 20:48:33 56° W 20:53:16 10° NNW
Cosmos 1110 Rocket 4.5 20:44:41 10° SW 20:49:49 62° WNW 20:54:59 10° NNE
SL-4 R/B 3.2 20:45:48 10° SSW 20:49:52 28° SE 20:54:00 10° E
STARLINK-1244 3.6 20:46:08 10° W 20:50:18 86° N 20:54:29 10° E
SL-4 R/B 3.2 20:50:34 10° E 20:51:25 12° ENE 20:52:15 10° NE
Cosmos 1842 3.2 20:48:52 14° S 20:52:06 83° ESE 20:56:01 10° NNE
Cosmos 1503 Rocket 4.2 20:47:46 10° NNW 20:53:05 70° ENE 20:57:15 17° SE
STARLINK-1245 3.6 20:48:55 10° W 20:53:05 86° N 20:57:15 10° E
ERBS 3.9 20:51:27 10° WNW 20:54:35 37° N 20:57:43 10° ENE
STARLINK-1138 3.6 20:51:08 10° W 20:55:18 85° N 20:59:28 10° E
STARLINK-1234 3.2 20:52:32 10° W 20:55:45 53° SSW 20:57:44 21° SE
STARLINK-1233 3.6 20:53:53 10° W 20:58:02 88° N 21:02:13 10° E
STARLINK-1143 3.7 20:56:05 10° W 21:00:15 84° N 21:04:26 10° E
STARLINK-1209 3.3 20:58:31 10° W 21:01:43 48° SSW 21:03:26 23° SE
Cosmos 2263 4.4 20:57:25 13° S 21:02:09 51° ESE 21:07:35 10° NE
STARLINK-1204 3.6 20:58:52 10° W 21:03:02 89° N 21:07:12 10° ESE
SJ 16-02 4.2 21:02:45 10° NNE 21:03:40 11° NE 21:04:36 10° NE
STARLINK-1241 3.7 21:01:07 10° W 21:05:17 83° N 21:09:27 10° E
STARLINK-1238 3.6 21:03:52 10° W 21:08:02 89° SSW 21:12:12 10° ESE
STARLINK-1239 3.7 21:06:05 10° W 21:10:15 82° N 21:14:25 10° E
Cosmos 1536 Rocket 4.0 21:08:36 21° SSE 21:11:14 48° E 21:15:28 10° NNE
Cosmos 1354 Rocket 4.0 21:07:03 10° NNW 21:12:23 85° ENE 21:16:12 20° SSE
Meteor 1-21 4.2 21:07:50 14° S 21:12:46 85° E 21:18:24 10° NNE
STARLINK-1201 3.5 21:08:51 10° W 21:13:01 87° SSW 21:17:10 10° ESE
COSMOS 2455 3.7 21:09:44 18° SSE 21:13:08 31° ESE 21:18:21 10° NE
JB-3 4.4 21:09:14 10° NNE 21:13:26 88° WNW 21:16:37 17° SSW
USA 215 3.3 21:07:25 10° ESE 21:14:00 86° NNE 21:20:36 10° WNW
Cosmos 1486 Rocket 4.5 21:09:20 10° NNW 21:14:29 52° WSW 21:18:13 18° S
Cosmos 1833 4.2 21:09:32 10° NNW 21:15:11 76° WSW 21:19:13 20° SSE
STARLINK-1240 3.7 21:11:03 10° W 21:15:13 81° N 21:19:23 10° E
Cosmos 1544 Rocket 3.8 21:11:21 10° NNW 21:15:38 61° W 21:18:39 19° S
Cosmos 1302 Rocket 4.2 21:11:23 10° SSW 21:16:41 73° WNW 21:22:01 10° NNE
Cosmos 1271 Rocket 2.7 21:14:22 21° S 21:16:50 70° E 21:20:46 10° NNE
Cosmos 2297 Rocket 4.0 21:12:57 10° NNW 21:17:41 26° NE 21:22:24 10° E
Spot 4 3.9 21:14:22 20° SSE 21:17:45 80° ENE 21:22:37 10° NNW
STARLINK-1206 3.5 21:13:51 10° WNW 21:18:01 85° SSW 21:22:10 10° ESE
Cosmos 1242 Rocket 2.6 21:15:26 18° SSW 21:18:03 80° WNW 21:21:46 10° N
STARLINK-1203 3.7 21:15:53 10° W 21:20:06 81° N 21:24:20 10° E
STARLINK-1216 3.7 21:16:02 10° W 21:20:12 81° N 21:24:22 10° E
STARLINK-60 3.5 21:20:10 22° SSW 21:21:42 35° SSE 21:24:38 10° E
STARLINK-1205 3.5 21:18:49 10° WNW 21:22:58 82° SSW 21:27:08 10° ESE
NOSS 2-2 (D) 4.1 21:20:43 10° WSW 21:24:19 53° NW 21:28:38 10° NE
CENTAUR R/B 3.4 21:16:45 10° NW 21:24:32 60° SW 21:31:08 18° SSE
STARLINK-1237 3.7 21:21:01 10° W 21:25:11 81° N 21:29:21 10° E
Lacrosse 4 Rocket 4.2 21:23:59 10° NNW 21:26:45 16° NNE 21:29:28 10° ENE
Cosmos 1707 2.7 21:24:35 23° S 21:26:54 74° E 21:30:48 10° NNE
SL-27 R/B 4.3 21:24:35 10° NW 21:27:28 23° WSW 21:29:28 15° SW
Helios 1A 4.3 21:24:58 14° ESE 21:27:58 32° ENE 21:31:40 10° N
STARLINK-1218 3.5 21:23:48 10° WNW 21:27:58 80° SSW 21:32:07 10° ESE
ATLAS 3B R/B 2.7 21:21:12 10° NW 21:28:00 89° SW 21:33:56 15° SE
NOSS 3-2 (C) 4.4 21:22:32 10° NW 21:29:40 50° WSW 21:35:37 19° S
STARLINK-1202 3.7 21:26:00 10° W 21:30:10 80° N 21:34:21 10° E
Cosmos 1726 2.1 21:27:09 10° N 21:30:52 76° ENE 21:32:50 27° SSE
Meteor 1-16 Rocket 4.2 21:26:37 10° N 21:32:12 74° ENE 21:35:51 21° SSE
STARLINK-1254 3.5 21:28:47 10° WNW 21:32:56 77° SSW 21:37:05 10° ESE
ALOS 2 2.9 21:30:24 21° SE 21:33:11 58° ENE 21:37:32 10° N
Cosmos 1867 3.8 21:29:16 10° NW 21:34:39 59° SW 21:38:07 22° SSE
COSMOS 2487 2.3 21:31:54 10° NNW 21:35:24 89° WSW 21:37:03 29° SSE
NOSS 5 (C) 4.2 21:34:07 10° NW 21:37:12 87° SW 21:39:14 24° SE
STARLINK-1231 3.5 21:33:45 10° WNW 21:37:54 75° SSW 21:41:51 11° ESE
STARLINK-1246 3.7 21:35:59 10° W 21:40:10 81° N 21:44:20 10° E
Cosmos 1992 Rocket 3.9 21:36:08 17° SSW 21:40:10 79° ESE 21:45:25 10° NNE
Cosmos 1943 Rocket 2.8 21:34:46 10° SW 21:40:13 55° NW 21:45:46 10° NNE
SeaSat 1 2.5 21:36:17 10° NE 21:41:11 60° ESE 21:44:34 20° SSW
NOSS 3-4 (A) 3.5 21:36:32 13° SSW 21:41:45 59° SE 21:48:03 10° NE
NOSS 3-4 (C) 3.5 21:36:40 13° SSW 21:41:52 58° SE 21:48:10 10° NE
Cosmos 1606 Rocket 4.1 21:37:41 10° N 21:41:54 48° ENE 21:44:29 21° SE
EO 1 Del DPAF 3.2 21:38:21 10° NNE 21:42:09 82° WNW 21:44:29 22° SSW
STARLINK-1232 3.5 21:38:45 10° WNW 21:42:54 72° SSW 21:46:40 12° ESE
STARLINK-1224 3.7 21:40:59 10° W 21:45:08 81° N 21:49:18 10° E
Cosmos 2315 Rocket 4.1 21:41:35 10° N 21:47:47 70° ENE 21:52:08 21° SSE
STARLINK-1208 3.5 21:43:42 10° WNW 21:47:50 69° SSW 21:51:25 13° ESE
STARLINK-1225 3.7 21:45:59 10° W 21:50:08 82° N 21:54:18 10° E
Meteor 2-10 4.2 21:45:34 10° NNW 21:50:33 61° W 21:53:43 22° S
STARLINK-1212 3.8 21:47:59 10° W 21:50:44 29° SSW 21:50:47 29° SSW
STARLINK-1105 3.8 21:48:27 10° W 21:51:12 29° SSW 21:51:13 29° SSW
STARLINK-29 3.6 21:51:41 33° SE 21:51:41 33° SE 21:54:31 10° E
STARLINK-1247 3.9 21:49:20 10° W 21:52:06 29° SSW 21:52:07 29° SSW
STARLINK-1227 3.9 21:49:50 10° W 21:52:32 28° SSW 21:52:32 28° SSW
STARLINK-1271 3.5 21:48:43 10° WNW 21:52:50 66° SSW 21:56:14 15° ESE
Cosmos 292 Rocket 4.4 21:48:31 10° SW 21:53:17 56° WNW 21:58:06 10° NNE
STARLINK-1226 3.9 21:50:42 10° W 21:53:23 28° SSW 21:53:23 28° SSW
BREEZE-M DEB (TANK) 2.9 21:44:08 10° WSW 21:53:37 62° S 21:56:41 10° E
S3M 4.3 21:47:42 10° NNW 21:53:46 61° W 21:58:10 19° SSW
BREEZE-M DEB (TANK) 3.2 21:50:36 10° W 21:54:01 45° SSW 21:58:17 10° ESE
STARLINK-1215 3.9 21:51:35 10° W 21:54:16 28° SW 21:54:16 28° SW
Cosmos 2227 Rocket 3.6 21:49:41 10° NNW 21:54:55 36° NE 22:00:07 10° ESE
STARLINK-1230 3.7 21:50:57 10° W 21:55:06 83° N 21:59:17 10° E
RESURS DK-1 3.6 21:53:56 23° SE 21:55:12 27° ESE 21:58:43 10° NE
STARLINK-1217 4.0 21:53:25 10° W 21:56:00 27° SW 21:56:00 27° SW
Cosmos 2369 Rocket 2.8 21:50:49 10° SW 21:56:24 57° NW 22:01:59 10° NNE
STARLINK-1229 4.0 21:54:20 10° W 21:56:54 27° SW 21:56:54 27° SW
STARLINK-1154 3.6 21:53:42 10° WNW 21:57:48 63° SSW 22:01:00 16° ESE
STARLINK-1270 4.0 21:55:14 10° W 21:57:45 26° SW 21:57:45 26° SW
STARLINK-1189 4.1 21:57:02 10° W 21:59:29 25° SW 21:59:29 25° SW
STARLINK-1243 3.6 21:55:57 10° W 22:00:06 83° N 22:04:16 10° E
Cosmos 1340 Rocket 3.2 21:56:26 10° NNW 22:00:25 56° W 22:02:31 26° SSW
STARLINK-1188 4.1 21:57:57 10° W 22:00:22 25° SW 22:00:22 25° SW
STARLINK-1187 4.3 21:59:07 10° W 22:01:14 22° SW 22:01:14 22° SW
ATLAS CENTAUR R/B 1.4 21:59:35 22° SSW 22:02:11 61° SE 22:06:13 10° NE
Aureole 3 2.7 21:59:02 10° NNW 22:02:20 69° W 22:03:24 36° S
STARLINK-1197 3.6 21:58:39 10° WNW 22:02:45 61° SSW 22:05:46 17° SE
Thor Agena Rocket 4.0 21:57:33 10° N 22:02:48 62° WNW 22:07:11 15° SW
Cosmos 1626 3.8 22:01:28 18° ESE 22:03:00 22° E 22:05:56 10° NE
STARLINK-1191 4.2 22:00:26 10° W 22:02:39 24° SW 22:02:39 24° SW
STARLINK-1221 4.3 22:01:23 10° W 22:03:35 23° SW 22:03:35 23° SW
STARLINK-1222 4.3 22:02:14 10° W 22:04:23 23° SW 22:04:23 23° SW
STARLINK-1236 3.6 22:00:55 10° W 22:05:04 85° N 22:09:15 10° E
Cosmos 1908 3.1 22:01:42 10° N 22:05:33 87° E 22:07:21 30° SSE
STARLINK-1214 4.3 22:03:09 10° W 22:05:15 23° SW 22:05:15 23° SW
Nimbus 7 Rocket 4.5 21:59:42 10° NNE 22:05:49 79° ESE 22:10:04 21° SSW
Cosmos 1025 Rocket 3.8 22:02:58 16° SW 22:06:06 46° WNW 22:10:17 10° N
STARLINK-1198 3.6 22:03:38 10° WNW 22:07:43 58° SSW 22:10:32 19° SE
EXPRESS MD2 4.5 22:03:21 10° W 22:07:59 73° S 22:18:03 10° E
Meteor 2-19 Rocket 4.5 22:03:37 20° SSW 22:08:02 85° W 22:14:12 10° N
Cosmos 1953 3.2 22:04:53 10° NNW 22:08:38 39° W 22:10:41 22° SSW
BREEZE M DEB (TANK) 3.3 22:07:23 10° WSW 22:08:33 22° WSW 22:08:33 22° WSW
Cosmos 1656 Rocket 3.8 22:04:50 13° SW 22:09:55 78° WNW 22:15:30 10° NNE
ATLAS 2AS CENTAUR R/B 3.0 22:02:11 10° SW 22:10:13 85° SE 22:18:08 10° NE
STARLINK-1199 3.7 22:08:38 10° WNW 22:12:42 55° SSW 22:15:20 20° SE
Landsat 4 4.5 22:11:05 10° NNE 22:14:35 38° E 22:16:01 26° SE
STARLINK-1269 3.6 22:10:53 10° W 22:15:03 87° N 22:19:13 10° E
Cosmos 2292 Rocket 3.1 22:13:24 28° SSW 22:15:08 67° W 22:18:15 10° N
STARLINK-1210 3.7 22:13:37 10° WNW 22:17:39 52° SSW 22:20:06 22° SE
FALCON 9 R/B 4.4 22:19:35 14° SE 22:19:35 14° SE 22:23:19 10° ESE
KORONAS-FOTON 3.7 22:17:21 30° S 22:19:07 78° E 22:23:00 10° NNE
STARLINK-1200 3.6 22:15:51 10° W 22:20:01 89° N 22:24:11 10° E
Cosmos 1655 Rocket 4.5 22:15:01 15° SSW 22:20:05 57° WNW 22:26:17 10° N
Cosmos 1777 Rocket 4.0 22:14:55 10° NNW 22:20:09 72° WSW 22:23:19 24° S
SL-4 R/B 2.2 22:20:18 23° W 22:20:18 23° W 22:22:04 10° NW
STARLINK-1219 3.8 22:18:35 10° WNW 22:22:36 50° SSW 22:24:52 23° SE
ATLAS 5 CENTAUR R/B 0.8 22:21:46 15° SW 22:24:17 87° SE 22:26:21 10° NE
STARLINK-1192 3.5 22:20:51 10° W 22:25:01 89° SSW 22:29:11 10° ESE
Cosmos 2228 3.1 22:22:14 10° NNW 22:26:28 66° W 22:28:36 28° S
Cosmos 1726 Rocket 3.5 22:22:55 10° NNW 22:27:16 79° W 22:29:30 28° S
STARLINK-52 3.1 22:26:28 37° SSW 22:27:19 49° SSE 22:30:26 10° E
Cosmos 1892 Rocket 3.8 22:25:06 27° SSE 22:27:20 58° E 22:31:38 10° NNE
STARLINK-1211 3.8 22:23:36 10° WNW 22:27:35 47° SSW 22:29:40 25° SSE
SL-4 R/B 2.3 22:24:22 10° WSW 22:29:10 67° SSE 22:33:57 10° E
STARLINK-1244 3.5 22:25:49 10° W 22:29:59 88° SSW 22:34:09 10° ESE
STARLINK-1320 4.5 22:31:42 21° ESE 22:31:42 21° ESE 22:33:27 10° E
STARLINK-1322 4.4 22:32:00 21° ESE 22:32:00 21° ESE 22:33:46 10° E
ERBS 3.5 22:28:08 10° WNW 22:31:20 44° NNE 22:34:34 10° E
STARLINK-1324 4.4 22:32:21 22° ESE 22:32:21 22° ESE 22:34:08 10° E
Cosmos 1300 3.0 22:27:48 10° N 22:31:35 58° ENE 22:33:33 26° SSE
STARLINK-1294 4.4 22:32:38 22° ESE 22:32:38 22° ESE 22:34:28 10° E
STARLINK-1261 4.4 22:32:57 22° ESE 22:32:57 22° ESE 22:34:47 10° E
STARLINK-1325 4.4 22:33:18 22° ESE 22:33:18 22° ESE 22:35:09 10° E
STARLINK-1245 3.9 22:28:34 10° W 22:32:32 44° SSW 22:34:26 26° SSE
STARLINK-1338 4.4 22:32:46 26° SE 22:32:47 26° SE 22:36:01 10° E
STARLINK-1333 4.4 22:33:40 22° ESE 22:33:40 22° ESE 22:35:31 10° E
STARLINK-1334 4.4 22:33:58 22° ESE 22:33:58 22° ESE 22:35:50 10° E
STARLINK-1326 4.4 22:34:18 23° ESE 22:34:18 23° ESE 22:36:10 10° E
Cosmos 921 Rocket 3.6 22:31:52 26° SSE 22:33:49 44° ESE 22:37:59 10° NNE
STARLINK-1323 4.3 22:34:36 23° ESE 22:34:36 23° ESE 22:36:30 10° E
In-Cosmos 22 4.5 22:30:05 18° SSW 22:33:54 57° WNW 22:39:08 10° N
YAOGAN 11 4.0 22:31:51 27° S 22:34:12 82° WSW 22:38:33 10° NNW
STARLINK-1349 4.3 22:34:57 23° ESE 22:34:57 23° ESE 22:36:51 10° E
STARLINK-1336 4.3 22:35:16 23° ESE 22:35:16 23° ESE 22:37:11 10° E
STARLINK-1331 4.3 22:35:36 23° ESE 22:35:36 23° ESE 22:37:32 10° E
STARLINK-1138 3.5 22:30:48 10° WNW 22:34:58 85° SSW 22:39:08 10° ESE
STARLINK-1344 4.3 22:35:54 23° ESE 22:35:54 23° ESE 22:37:51 10° E
STARLINK-1343 4.3 22:36:13 23° ESE 22:36:13 23° ESE 22:38:12 10° E
STARLINK-1346 4.2 22:36:30 24° SE 22:36:30 24° SE 22:38:35 10° E
STARLINK-1328 4.3 22:36:54 24° SE 22:36:54 24° SE 22:38:54 10° E
Meteor 1-24 Rocket 3.9 22:33:05 24° SSE 22:36:17 59° E 22:41:42 10° NNE
STARLINK-1354 4.2 22:37:13 24° SE 22:37:13 24° SE 22:39:14 10° E
STARLINK-1347 4.2 22:37:33 24° SE 22:37:33 24° SE 22:39:34 10° E
STARLINK-1357 4.2 22:37:53 24° SE 22:37:53 24° SE 22:39:55 10° E
STARLINK-1233 4.0 22:33:32 10° W 22:37:28 42° SSW 22:39:11 27° SSE
STARLINK-1335 4.2 22:38:12 24° SE 22:38:12 24° SE 22:40:16 10° E
STARLINK-1327 4.2 22:38:31 25° SE 22:38:31 25° SE 22:40:35 10° E
STARLINK-1340 4.2 22:38:51 25° SE 22:38:51 25° SE 22:40:57 10° E
Cosmos 2266 Rocket 4.4 22:33:43 17° SSW 22:38:20 55° WNW 22:44:18 10° N
CZ-4C R/B 3.9 22:36:20 12° SE 22:38:27 15° ESE 22:41:36 10° ENE
STARLINK-1356 4.2 22:39:10 25° SE 22:39:10 25° SE 22:41:16 10° E
STARLINK-1345 4.2 22:39:28 25° SE 22:39:28 25° SE 22:41:35 10° E
STARLINK-1355 4.1 22:39:47 25° SE 22:39:47 25° SE 22:41:56 10° E
STARLINK-1371 4.3 22:39:09 28° SSE 22:39:23 29° SE 22:42:39 10° E
STARLINK-1321 4.1 22:40:10 25° SE 22:40:10 25° SE 22:42:19 10° E
STARLINK-1358 4.1 22:40:29 26° SE 22:40:29 26° SE 22:42:39 10° E
STARLINK-1143 3.5 22:35:46 10° WNW 22:39:56 83° SSW 22:44:05 10° ESE
STARLINK-1332 4.1 22:40:48 26° SE 22:40:48 26° SE 22:42:59 10° E
STARLINK-1348 4.1 22:41:05 26° SE 22:41:05 26° SE 22:43:16 10° E
STARLINK-1330 4.1 22:41:27 26° SE 22:41:27 26° SE 22:43:39 10° E
Cosmos 1437 3.7 22:40:11 27° SE 22:41:00 32° E 22:43:45 10° NNE
STARLINK-1363 4.1 22:41:47 26° SE 22:41:47 26° SE 22:44:00 10° E
STARLINK-1337 4.1 22:42:06 27° SE 22:42:06 27° SE 22:44:21 10° E
Resurs 1-4 Rocket 4.4 22:39:33 10° ENE 22:41:40 12° E 22:43:46 10° ESE
STARLINK-1342 4.1 22:42:25 27° SE 22:42:25 27° SE 22:44:40 10° E
STARLINK-1364 4.0 22:42:45 27° SE 22:42:45 27° SE 22:45:01 10° E
STARLINK-1204 4.1 22:38:32 10° W 22:42:25 40° SSW 22:43:59 28° SSE
STARLINK-1376 4.0 22:43:04 27° SE 22:43:04 27° SE 22:45:21 10° E
STARLINK-1341 4.2 22:42:21 29° SSE 22:42:41 30° SE 22:46:00 10° E
STARLINK-1360 4.0 22:43:23 27° SE 22:43:23 27° SE 22:45:42 10° E
STARLINK-1361 4.0 22:43:43 27° SE 22:43:43 27° SE 22:46:02 10° E
SJ 16-02 2.2 22:39:08 10° NNW 22:43:27 46° ENE 22:47:11 13° SE
STARLINK-1367 4.0 22:44:00 28° SE 22:44:00 28° SE 22:46:24 10° E
STARLINK-1366 4.0 22:44:23 28° SE 22:44:23 28° SE 22:46:43 10° E
STARLINK-1241 3.5 22:40:47 10° WNW 22:44:56 81° SSW 22:49:06 10° ESE
STARLINK-1339 4.1 22:45:37 29° SSE 22:45:49 30° SSE 22:49:01 10° E
STARLINK-1374 4.2 22:45:33 30° SSE 22:46:00 31° SSE 22:49:22 10° E
STARLINK-1238 4.1 22:43:34 10° W 22:47:24 37° SSW 22:48:48 28° S
Helios 1B rocket 3.1 22:44:09 10° NNE 22:48:08 43° E 22:50:09 25° SSE
STARLINK-1239 3.5 22:45:45 10° WNW 22:49:55 78° SSW 22:54:03 10° ESE
Cosmos 1674 3.4 22:48:20 23° SW 22:50:21 44° WNW 22:54:01 10° N
STARLINK-1201 4.2 22:48:33 10° W 22:52:21 35° SSW 22:53:33 29° S
STARLINK-1377 4.1 22:52:00 31° S 22:52:42 34° SSE 22:56:09 10° E
STARLINK-1240 3.5 22:50:43 10° WNW 22:54:51 76° SSW 22:59:00 10° ESE
Cosmos 1244 Rocket 4.5 22:51:03 22° S 22:55:12 89° E 23:01:25 10° N
CZ-2D R/B 4.3 22:52:35 10° NE 22:55:33 15° E 22:58:31 10° ESE
STARLINK-1353 4.0 22:55:17 31° S 22:56:05 35° SSE 22:59:34 10° E
STARLINK-1206 4.3 22:53:34 10° W 22:57:19 33° SW 22:58:21 29° S
USA 215 3.6 22:52:57 18° SSE 22:57:26 43° SW 23:03:38 10° WNW
STARLINK-60 2.9 22:54:27 10° W 22:57:38 86° N 23:00:51 10° E
Cosmos 2219 3.2 22:52:27 10° NNW 22:58:09 79° WSW 23:02:17 19° SSE
COSMOS 2455 3.2 22:52:50 10° SW 22:58:43 67° NW 23:04:45 10° NE
STARLINK-1375 4.0 22:58:33 31° S 22:59:29 37° SSE 23:02:59 10° E
Cosmos 1745 Rocket 4.4 22:55:32 20° SSE 22:59:45 55° E 23:05:43 10° NNE
STARLINK-1216 3.5 22:55:41 10° WNW 22:59:49 73° SSW 23:03:58 10° ESE
STARLINK-1203 3.5 22:55:46 10° WNW 22:59:58 73° SSW 23:04:10 10° ESE
GEOS 3 Rocket 4.2 22:56:05 10° ESE 23:01:13 60° NE 23:06:28 10° NW
STARLINK-1205 4.4 22:58:33 10° W 23:02:15 31° SW 23:03:06 29° S
Cosmos 2297 Rocket 2.2 22:56:45 10° NNW 23:02:28 86° WSW 23:07:00 16° SSE
STARLINK-1352 3.8 23:01:56 32° S 23:02:44 37° SSE 23:06:07 10° E
STARLINK-1350 3.9 23:01:49 31° S 23:02:52 38° SSE 23:06:24 10° E
Helios 1A 4.0 23:01:35 23° SW 23:03:28 34° W 23:07:19 10° NNW
STARLINK-1237 3.5 23:00:40 10° WNW 23:04:48 70° SSW 23:08:56 10° ESE
PSLV R/B 3.8 23:00:54 10° NNE 23:05:26 65° ESE 23:07:53 25° S
Cosmos 2263 Rocket 4.5 23:01:25 10° NNW 23:05:59 24° NE 23:10:31 10° E
Lacrosse 4 Rocket 2.3 23:02:10 10° NNW 23:06:28 51° NE 23:10:36 10° SE
STARLINK-1218 4.5 23:03:35 10° W 23:07:13 30° SW 23:07:54 28° SSW
Cosmos 2058 Rocket 3.6 23:05:24 10° NNW 23:09:40 47° W 23:11:58 24° SSW
STARLINK-1368 3.8 23:08:27 30° SSW 23:09:45 42° SSE 23:13:21 10° E
STARLINK-1202 3.5 23:05:39 10° WNW 23:09:47 67° SSW 23:13:54 10° ESE
ALOS 2 4.4 23:07:47 15° SW 23:09:54 20° W 23:13:08 10° NW
Cosmos 1455 3.5 23:06:34 10° N 23:10:02 34° ENE 23:12:54 14° SE
Meteor 2-10 Rocket 4.1 23:05:06 10° N 23:10:16 52° ENE 23:14:39 13° SE
Cosmos 1937 Rocket 4.1 23:06:51 10° NNW 23:12:03 57° ENE 23:17:14 10° SE
Cosmos 2082 4.1 23:06:41 10° NNW 23:12:20 65° NE 23:17:56 10° SE
Meteor 1-29 3.5 23:09:05 10° NNE 23:12:22 45° E 23:13:48 27° SSE
Cosmos 1898 Rocket 3.7 23:07:29 10° NNW 23:12:51 74° ENE 23:17:36 13° SSE
STARLINK-1369 3.7 23:11:47 29° SSW 23:13:13 44° SSE 23:16:50 10° E
Cosmos 1626 Rocket 3.8 23:11:50 24° S 23:14:16 62° E 23:18:36 10° NNE
STARLINK-1372 3.7 23:15:07 28° SSW 23:16:41 46° SSE 23:20:20 10° E
ATLAS 3B R/B 3.8 23:12:35 10° WNW 23:17:58 26° WSW 23:21:10 18° SSW
Starlink 7 placeholder 1.9 23:17:57 66° NNW 23:18:02 68° N 23:20:00 10° E
Meteor 2-5 Rocket 4.1 23:14:12 19° SW 23:18:07 56° WNW 23:23:41 10° N
SeaSat 1 4.0 23:14:08 10° NNE 23:18:29 32° NW 23:22:49 10° WSW
STARLINK-1246 3.6 23:15:38 10° WNW 23:19:45 62° SSW 23:23:50 10° ESE
STARLINK-1378 3.6 23:18:28 27° SSW 23:20:10 48° SSE 23:23:50 10° E
SL-14 R/B 3.6 23:19:11 25° SW 23:21:12 55° WNW 23:25:00 10° N
FALCON 9 DEB 3.0 23:20:07 17° WSW 23:22:41 73° SSE 23:26:09 10° ENE
IRAS Rocket 4.3 23:18:20 16° SSE 23:22:54 84° ENE 23:28:28 10° NNW
STARLINK-1379 3.6 23:21:52 26° SW 23:23:40 49° SSE 23:27:22 10° ENE
STARLINK-1224 3.6 23:20:36 10° WNW 23:24:42 59° SSW 23:28:46 10° SE
STARLINK-1329 3.6 23:23:14 25° SW 23:25:07 50° SSE 23:28:50 10° ENE
SL-16 R/B 3.2 23:20:25 10° SE 23:26:22 53° ENE 23:32:21 10° N
STARLINK-29 2.9 23:24:19 10° W 23:27:31 89° NNW 23:30:45 10° E
Cosmos-2242 4.0 23:24:36 10° N 23:28:41 42° ENE 23:32:30 11° SE
STARLINK-1362 3.5 23:26:40 24° SW 23:28:41 52° SSE 23:32:25 10° ENE
ATLAS CENTAUR R/B 1.7 23:26:53 10° WNW 23:29:10 39° SSW 23:33:29 10° SE
STARLINK-1225 3.6 23:25:36 10° WNW 23:29:40 56° SSW 23:33:44 10° SE
Cosmos 1656 3.9 23:27:52 21° S 23:31:32 58° ESE 23:37:02 10° NE
STARLINK-1373 3.5 23:30:05 23° SW 23:32:15 55° SSE 23:36:01 10° ENE
NOSS 3-4 (A) 4.4 23:26:57 10° WSW 23:32:52 48° NNW 23:39:18 10° NE
Cosmos 2084 Rocket 4.3 23:28:32 10° NW 23:32:55 54° NE 23:37:20 10° ESE
NOSS 3-4 (C) 4.4 23:27:03 10° WSW 23:32:58 49° NNW 23:39:25 10° NE
RESURS DK-1 3.3 23:29:48 14° WSW 23:33:04 44° NW 23:37:05 10° NNE
STARLINK-1365 3.5 23:31:12 22° SW 23:33:30 56° SSE 23:37:16 10° ENE
Cosmos 1386 Rocket 4.5 23:29:51 20° S 23:34:14 86° E 23:40:30 10° N
STARLINK-1230 3.7 23:30:35 10° WNW 23:34:38 53° SSW 23:38:40 10° SE
STARLINK-1390 3.5 23:33:35 22° SW 23:35:52 57° SSE 23:39:38 10° ENE
Cosmos 1812 Rocket 3.5 23:31:31 10° NNW 23:36:01 80° W 23:38:54 22° S
Cosmos 1697 Rocket 3.6 23:32:47 17° SSE 23:36:32 38° ESE 23:41:45 10° NE
Cosmos 2084 3.8 23:33:36 14° WSW 23:37:20 70° NW 23:41:50 10° NE
Cosmos 1626 3.2 23:36:00 19° SW 23:38:05 34° WNW 23:41:32 10° N
BREEZE-M R/B 3.4 23:32:56 10° SW 23:38:41 43° SSE 23:41:51 10° E
Cosmos 990 Rocket 4.0 23:33:49 10° NNW 23:39:04 71° WSW 23:43:10 17° SSE
DELTA 2 DEB (DPAF) 4.2 23:35:37 16° SSE 23:39:10 77° ENE 23:43:40 10° NNW
Cosmos 2227 Rocket 2.4 23:33:42 10° NW 23:39:16 57° WSW 23:43:29 17° S
STARLINK-1243 3.7 23:35:35 10° WNW 23:39:37 50° SSW 23:43:37 10° SE
CZ-4 R/B 4.1 23:35:55 10° N 23:40:38 60° WNW 23:43:50 20° SW
ATLAS CENTAUR R/B 3.1 23:37:35 10° W 23:41:21 30° NNW 23:44:55 10° NNE
STARLINK-1236 3.8 23:40:33 10° WNW 23:44:33 48° SSW 23:48:32 10° SE
USA 81 4.2 23:42:28 18° S 23:46:24 70° E 23:51:41 10° N
Alouette 2 Rocket 3.9 23:41:21 10° NNW 23:47:22 84° ENE 23:50:43 16° SSE
Cosmos 1825 Rocket 4.3 23:44:53 16° SSE 23:48:01 44° E 23:52:10 10° NNE
Cosmos 1709 Rocket 4.1 23:44:10 17° S 23:48:57 70° E 23:55:06 10° NNE
Cosmos 1602 Rocket 3.5 23:47:23 22° SSW 23:50:05 77° WNW 23:54:27 10° N
SL-08 ROCKET BODY 4.4 23:46:46 20° SSW 23:51:00 72° WNW 23:56:52 10° N
Cosmos 2285 Rocket 4.0 23:46:31 10° NNW 23:52:57 89° WSW 23:59:17 10° SSE
STARLINK-1269 3.9 23:50:32 10° W 23:54:29 43° SSW 23:58:25 10° SE
